Location: Ladd Observatory
(41.8387°N, 71.3996°W)
Time: 05:23:30
(UTC-04:00)

Daily predictions for brighter satellites

Satellite Brightness Start Highest point End
(mag) Time Altitude Azimuth Time Altitude Azimuth Time Altitude Azimuth
BREEZE-M DEB (TANK) 4.4 00:01:18 10° W 00:13:11 44° NNW 00:14:19 38° NNE
Cosmos 2219 Rocket 3.6 00:14:24 31° NW 00:14:25 31° NW 00:19:26 10° N
SL-16 R/B 3.6 00:21:38 32° NE 00:21:38 32° NE 00:24:33 10° NNE
CZ-2C R/B 3.8 00:15:56 10° N 00:19:21 40° N 00:19:21 40° N
Cosmos 2333 Rocket 3.8 00:32:48 28° NW 00:32:48 28° NW 00:37:34 10° N
Cosmos 1943 Rocket 4.4 00:45:01 10° N 00:48:23 16° NE 00:49:43 15° ENE
Mayak 1.5 00:51:18 10° N 00:52:18 17° N 00:52:18 17° N
Cosmos 2237 Rocket 3.9 00:57:08 26° NW 00:57:08 26° NW 01:01:29 10° N
Cosmos 2369 Rocket 3.7 00:55:24 10° N 00:59:57 31° NE 00:59:57 31° NE
CENTAUR R/B 3.4 00:58:14 10° NW 01:04:37 56° WNW 01:04:37 56° WNW
USA 215 3.7 01:13:10 55° NW 01:13:10 55° NW 01:18:05 10° NW
ADEOS Rocket 4.4 01:31:20 10° NE 01:34:48 26° ENE 01:34:48 26° ENE
ATLAS CENTAUR R/B 4.3 01:30:27 10° NW 01:35:02 29° NW 01:35:02 29° NW
Cosmos 2366 rocket 4.4 01:39:49 59° NNE 01:39:49 59° NNE 01:44:58 10° N
Cosmos 1727 Rocket 4.5 01:36:43 10° N 01:41:50 56° NE 01:41:50 56° NE
SL-16 R/B 4.1 02:03:29 19° NW 02:03:37 19° NW 02:07:38 10° N
Cosmos 1763 Rocket 4.4 02:14:49 43° NNE 02:14:49 43° NNE 02:18:15 10° NNE
SL-16 R/B 3.1 02:30:31 42° ESE 02:32:14 54° ENE 02:38:15 10° N
Cosmos 1943 Rocket 2.8 02:27:19 10° NNW 02:31:11 47° NNW 02:31:11 47° NNW
Cosmos 1821 Rocket 4.1 02:35:32 67° ESE 02:35:49 68° E 02:42:00 10° NNE
Resurs 1-4 Rocket 2.9 02:33:23 10° NNE 02:38:21 42° E 02:38:21 42° E
IRS-P3 4.3 02:33:34 10° NNE 02:38:11 67° NNE 02:38:11 67° NNE
Cosmos 1656 Rocket 4.4 02:35:17 10° NNW 02:40:50 50° ENE 02:42:49 35° ESE
Gblst 52 Del rocket 4.5 02:41:58 64° NW 02:42:06 64° NNW 02:47:45 10° NE
BREEZE-M DEB (TANK) 4.1 02:44:13 30° NE 02:44:13 30° NE 02:47:05 10° ENE
Cosmos 2369 Rocket 3.8 02:39:18 10° NW 02:41:42 23° NW 02:41:42 23° NW
USA 229 DEB 4.5 02:39:55 10° NNW 02:46:54 53° NE 02:54:01 10° SE
USA 229 4.5 02:40:01 10° NNW 02:47:00 53° NE 02:54:06 10° SE
CZ-3A R/B 3.2 02:38:37 10° NW 02:48:18 88° SW 02:53:36 10° SE
CZ-2D R/B 2.6 02:43:30 10° NNE 02:48:45 52° E 02:48:55 51° ESE
Cosmos 1934 Rocket 4.0 02:50:06 63° SE 02:50:45 68° E 02:56:46 10° NNE
AQUA 4.2 02:51:08 10° N 02:55:02 59° N 02:55:02 59° N
Cosmos 1943 4.1 02:56:08 36° NW 02:56:08 36° NW 03:01:12 10° N
Cosmos 841 Rocket 4.0 03:01:51 50° NW 03:01:51 50° NW 03:06:21 10° N
USA 32 4.0 02:56:12 10° N 03:01:01 75° NNW 03:01:01 75° NNW
Cosmos 1605 Rocket 4.4 03:02:48 43° SSE 03:04:44 61° E 03:11:02 10° NNE
Lacrosse 5 4.4 03:04:23 10° NNW 03:08:07 20° NNE 03:11:50 10° ENE
IRS P6 4.5 03:03:32 10° NNE 03:08:49 83° ESE 03:09:03 80° SSE
ARIANE 5 R/B 2.6 03:06:24 10° NNE 03:11:39 71° ESE 03:12:11 65° SE
BREEZE-M DEB (TANK) 4.4 03:13:14 34° WNW 03:15:51 61° N 03:37:44 10° ENE
Cosmos 1626 4.5 03:13:43 10° NNW 03:14:42 17° NNW 03:14:42 17° NNW
UNK 4.2 03:19:09 51° NW 03:19:09 51° NW 03:22:43 10° NNW
Cosmos 304 Rocket 4.4 03:20:35 43° NW 03:20:35 43° NW 03:24:43 10° N
ADEOS Rocket 3.5 03:16:38 10° N 03:21:39 37° WNW 03:21:45 37° WNW
MOZ.5/SAFIR/RUBIN 5/SL-8 4.1 03:22:13 43° SE 03:23:34 63° ENE 03:28:13 10° N
Cosmos 1400 Rocket 3.2 03:20:16 10° N 03:23:32 58° NNE 03:23:32 58° NNE
UNKNOWN OBJECT B 3.6 03:20:20 10° NNE 03:24:17 47° E 03:24:33 46° ESE
ADEOS II 4.2 03:24:59 10° NE 03:29:00 22° E 03:33:00 10° SE
Cosmos 1726 3.0 03:29:16 44° E 03:29:19 44° E 03:32:52 10° NNE
SL-27 R/B 3.6 03:34:31 36° E 03:34:31 36° E 03:37:29 10° NE
IRS-1D 3.6 03:30:52 10° N 03:35:56 61° WNW 03:36:35 56° WSW
Cosmos 1666 Rocket 3.9 03:35:33 10° N 03:39:57 64° E 03:41:52 32° SSE
Cosmos 2221 2.8 03:41:00 50° WNW 03:41:00 50° WNW 03:44:56 10° N
Cosmos 1805 Rocket 3.4 03:37:30 10° N 03:41:58 78° W 03:42:20 71° SSW
Cosmos 1447 Rocket 4.5 03:37:36 10° N 03:43:49 84° E 03:48:32 18° S
ADEOS 3.5 03:38:53 10° N 03:44:05 69° WNW 03:45:16 51° SW
Spot 4 Rocket 4.3 03:39:25 10° N 03:44:24 50° WNW 03:45:08 46° W
COSMOS 2406 3.1 03:47:05 47° SW 03:48:43 74° WNW 03:54:26 10° NNE
Cosmos 2285 Rocket 3.9 03:46:52 39° SSW 03:49:26 84° WNW 03:55:53 10° NNE
Cosmos 372 Rocket 4.1 03:45:52 10° NNW 03:50:49 47° WSW 03:51:00 47° WSW
Cosmos 2098 Rocket 4.4 03:52:13 34° W 03:52:58 36° W 03:57:44 10° NNW
Okean O Rocket 3.9 03:55:03 10° NE 03:58:31 22° E 04:01:55 10° SE
Abrixas 3.6 03:59:00 38° NE 03:59:00 38° NE 04:01:14 10° E
Cosmos 540 Rocket 4.3 03:58:15 31° W 03:59:08 33° WNW 04:03:46 10° N
Meteor 2-10 4.5 03:57:16 20° S 04:01:20 68° E 04:06:57 10° NNE
Cosmos 1151 Rocket 4.4 04:01:31 10° SSE 04:05:26 36° E 04:09:22 10° NNE
MOS 1 Rocket 3.9 04:02:58 10° N 04:06:51 33° WNW 04:07:19 32° W
Cosmos 2173 Rocket 4.2 04:02:26 14° S 04:07:55 73° E 04:14:17 10° NNE
Meteor 2-17 Rocket 4.4 04:08:09 21° S 04:12:26 84° W 04:18:35 10° N
Cosmos 1300 2.6 04:12:33 45° SSW 04:13:34 69° W 04:17:23 10° N
SL-16 R/B 3.5 04:15:37 24° W 04:16:08 25° W 04:21:07 10° NW
Sich 1 3.2 04:12:03 10° NNW 04:16:18 49° W 04:17:46 34° SW
BREEZE M DEB (TANK) 1.7 04:17:34 71° ESE 04:17:34 71° ESE 04:19:48 10° ESE
Resurs 1-4 Rocket 3.3 04:13:43 10° N 04:17:58 25° WNW 04:19:26 22° W
CZ-2D R/B 3.9 04:16:28 10° N 04:20:16 42° WNW 04:21:16 34° WSW
Cosmos 1315 Rocket 3.4 04:23:49 10° NNW 04:27:33 36° W 04:28:34 31° SW
CZ-2D R/B 3.5 04:24:24 10° NNW 04:28:25 22° WNW 04:30:14 18° W
Cosmos 1455 3.7 04:26:49 10° SSE 04:30:15 35° E 04:33:43 10° NNE
Cosmos 1459 Rocket 3.9 04:25:34 14° SSW 04:30:52 74° W 04:36:57 10° N
Cosmos 1470 Rocket 3.4 04:28:02 10° N 04:32:22 83° W 04:36:41 10° S
Cosmos 1538 Rocket 4.1 04:30:40 22° SW 04:34:09 65° WNW 04:39:31 10° NNE
Cosmos 2228 Rocket 3.0 04:31:12 19° SSW 04:34:20 68° W 04:38:47 10° N
USA 229 DEB 4.3 04:31:15 10° NW 04:37:40 36° WSW 04:44:10 10° S
USA 229 4.3 04:31:21 10° NW 04:37:47 36° WSW 04:44:17 10° S
Cosmos 2082 Rocket 3.0 04:35:33 10° S 04:40:56 51° ESE 04:46:23 10° NE
Cosmos 1515 Rocket 3.5 04:37:53 15° SSW 04:41:26 69° W 04:45:52 10° N
Cosmos 923 Rocket 4.3 04:37:46 10° S 04:42:55 69° ESE 04:48:09 10° NNE
NOSS 3-1 (A) 4.1 04:35:28 10° NW 04:43:10 85° WSW 04:51:39 10° SSE
Cosmos 1633 Rocket 3.9 04:40:49 10° NNW 04:44:36 29° W 04:46:49 19° SW
PSLV R/B 3.1 04:42:54 24° W 04:44:39 69° S 04:47:54 10° ESE
USA 161 3.0 04:47:07 14° NW 04:47:07 14° NW 04:47:36 10° NW
Meteor 2-3 Rocket 3.8 04:40:24 10° N 04:46:04 86° E 04:51:46 10° S
PSLV R/B 3.9 04:42:55 10° N 04:47:06 79° WNW 04:51:12 10° SSW
Tiangong 2 2.6 04:46:42 17° SSW 04:48:23 27° SSE 04:51:10 10° E
ARIANE 5 R/B 4.3 04:47:02 10° NNW 04:50:09 16° WNW 04:52:31 12° W
Cosmos 2061 Rocket 4.2 04:43:56 10° SSW 04:50:16 60° W 04:56:39 10° N
Lacrosse 5 2.4 04:46:54 10° NW 04:51:57 64° NE 04:56:59 10° ESE
CZ-4B R/B 3.1 04:51:40 10° N 04:56:07 73° WNW 05:00:37 10° SSW
CZ-4B R/B 3.4 04:51:47 10° NNE 04:57:17 74° ESE 05:02:39 10° S
Cosmos 192 4.5 04:52:35 10° SSW 04:57:31 79° ESE 05:02:30 10° NNE
Meteor 1-31 Rocket 4.3 04:54:26 10° NNE 04:58:09 38° E 05:01:51 10° SSE
Cosmos 1680 Rocket 3.7 04:56:46 10° SSW 05:02:02 79° ESE 05:07:23 10° NNE
Meteor PRIRODA 4.4 04:58:56 10° NNE 05:02:32 52° E 05:06:05 10° S
CZ-2C R/B 4.2 04:59:30 10° SSE 05:03:52 62° ENE 05:08:17 10° N
PAYLOAD B 4.3 04:59:04 10° NNE 05:04:42 85° WNW 05:10:17 10° SSW
Cosmos 1726 4.2 05:03:54 11° W 05:04:54 12° WNW 05:06:14 10° NW
Cosmos 2233 Rocket 4.5 04:59:27 10° S 05:05:29 64° E 05:11:33 10° NNE
Cosmos 2369 3.7 05:02:13 10° NNW 05:07:48 65° WSW 05:13:22 10° S
Cosmos 2112 Rocket 4.2 05:03:16 10° SSW 05:08:34 77° ESE 05:13:56 10° NNE
ADEOS II 2.5 05:03:55 10° N 05:08:56 47° WNW 05:13:56 10° SW
USA 234 4.0 05:03:34 10° ENE 05:09:54 49° SE 05:16:11 10° SSW
Cosmos 2016 Rocket 4.2 05:04:25 10° SSW 05:10:21 51° WNW 05:16:18 10° N
Cosmos 1892 3.0 05:06:56 10° NNW 05:10:36 45° W 05:14:16 10° SSW
Meteor 1-27 4.3 05:06:09 10° SSW 05:11:43 58° WNW 05:17:15 10° N
Landsat 4 3.6 05:08:38 10° S 05:12:21 68° WSW 05:16:06 10° NNW
NOSS 3-1 (C) 4.3 05:05:26 10° NW 05:12:43 46° WSW 05:20:39 10° S
Hubble Space Telescope 3.0 05:13:49 10° SSW 05:15:36 13° S 05:17:24 10° SSE
PSLV R/B 3.9 05:12:46 10° N 05:16:57 46° WNW 05:21:04 10° SW
Shenzhou-11 Module 2.4 05:14:51 12° WSW 05:17:39 54° SSE 05:20:41 10° E
Cosmos 2084 4.5 05:14:36 10° S 05:18:25 40° ESE 05:22:05 10° NE
Cosmos 1656 3.7 05:16:48 10° NNW 05:22:27 64° WSW 05:28:03 10° S
Cosmos 1725 Rocket 4.1 05:16:54 10° SSW 05:22:59 59° W 05:29:05 10° N
Cosmos 1825 2.7 05:22:13 10° N 05:26:01 65° E 05:29:47 10° SSE
Okean-O 3.5 05:27:01 10° NNE 05:31:23 54° E 05:35:43 10° S
